EDT,Max TemperatureF,Mean TemperatureF,Min TemperatureF,Max Dew PointF,MeanDew PointF,Min DewpointF,Max Humidity, Mean Humidity, Min Humidity, Max Sea Level PressureIn, Mean Sea Level PressureIn, Min Sea Level PressureIn, Max VisibilityMiles, Mean VisibilityMiles, Min VisibilityMiles, Max Wind SpeedMPH, Mean Wind SpeedMPH, Max Gust SpeedMPH,PrecipitationIn, CloudCover, Events, WindDirDegrees
2012-6-1,62,56,51,63,57,48,100,99,82,29.83,29.62,29.51,10,7,2,18,9,24,0.00,8,Rain,299
2012-6-2,73,60,48,52,44,36,100,59,25,29.74,29.69,29.66,10,10,10,24,13,32,0.00,4,,250
2012-6-3,80,70,59,55,47,39,88,51,23,29.79,29.73,29.71,10,10,10,26,14,32,0.00,2,,266
2012-6-4,71,62,53,57,52,46,100,70,41,29.90,29.82,29.76,10,10,7,10,4,18,0.00,4,,19
2012-6-5,66,60,53,57,51,45,100,75,49,30.01,29.96,29.89,10,10,5,14,6,17,0.00,4,Rain,58
2012-6-6,77,62,46,55,49,45,100,63,32,30.06,30.02,29.98,10,10,4,8,2,,0.00,1,,330
2012-6-7,82,68,53,55,50,41,100,57,24,30.08,30.04,30.00,10,10,10,12,3,18,0.00,1,,333
2012-6-8,84,70,57,55,47,37,82,47,21,30.06,29.99,29.91,10,10,5,15,4,21,0.00,0,,287
2012-6-9,89,76,62,55,50,46,73,42,22,29.96,29.92,29.88,10,10,10,16,5,23,0.00,0,,246
2012-6-10,87,74,62,63,54,48,88,47,27,30.05,30.00,29.95,10,10,7,12,4,,0.00,0,,155
2012-6-11,78,74,69,73,68,61,100,85,65,29.99,29.93,29.86,10,9,7,12,5,18,0.00,4,Rain,173
2012-6-12,82,72,60,72,57,39,100,61,23,30.08,29.89,29.80,10,10,5,18,9,26,0.00,1,,287
2012-6-13,69,58,48,57,48,39,100,67,40,30.21,30.16,30.09,10,10,10,10,5,,0.00,0,,67
2012-6-14,73,62,50,63,53,43,100,71,35,30.22,30.18,30.13,10,10,10,14,5,17,0.00,0,,83
2012-6-15,82,71,60,70,59,48,100,67,32,30.17,30.15,30.12,10,10,3,10,6,,0.00,0,,107
2012-6-16,84,74,64,68,62,55,100,64,37,30.18,30.09,29.96,10,10,3,17,5,23,0.00,1,,130
2012-6-17,80,73,64,75,67,63,100,74,54,29.96,29.88,29.82,10,10,1,10,6,9,0.00,3,Rain,229
2012-6-18,84,70,57,73,65,57,100,84,51,29.92,29.85,29.80,10,10,2,16,4,29,0.00,1,Rain,171
2012-6-19,93,84,75,68,65,61,74,53,36,30.03,29.97,29.90,10,10,10,17,10,24,0.00,0,,221
2012-6-20,93,83,73,66,61,54,73,47,26,30.11,30.04,29.94,10,10,10,18,8,23,0.00,0,,221
2012-6-21,93,82,69,75,63,57,100,59,30,29.98,29.91,29.80,10,10,3,20,9,24,0.00,2,Rain,245
2012-6-22,84,73,62,68,58,46,100,66,28,29.97,29.94,29.90,10,9,3,9,2,18,0.00,2,,333
2012-6-23,78,68,57,64,58,54,100,68,44,30.06,30.02,29.97,10,10,7,10,2,,0.00,0,,129
2012-6-24,87,78,69,63,56,50,69,49,27,30.04,29.96,29.87,10,10,10,15,4,18,0.00,2,,246
2012-6-25,75,67,59,63,50,37,88,55,27,30.03,29.99,29.90,10,10,5,15,7,22,0.00,2,,22
2012-6-26,82,66,50,54,46,39,94,54,23,30.06,30.00,29.94,10,10,10,12,2,21,0.00,0,,334
2012-6-27,89,72,55,55,49,43,94,48,20,30.02,29.93,29.82,10,10,10,15,4,22,0.00,0,,244
2012-6-28,100,83,66,73,60,48,70,46,34,29.85,29.76,29.67,10,10,10,13,6,18,0.00,0,,242
2012-6-29,91,80,68,75,64,52,100,63,26,29.87,29.81,29.73,10,10,4,14,6,18,0.00,0,,276
2012-6-30,93,80,66,70,64,57,100,66,30,29.84,29.80,29.76,10,10,7,16,6,21,0.00,1,Rain,255